Terug naar catalogus

FENGYUN 1C DEB

ActiefPO
NORAD 37453·DEBRIS·🇨🇳 China

Gelanceerd May 10, 1999 vanaf Taiyuan Satellite Launch Center

Loading…

Volgende Passages (komende 24 uur)

TLE

VerouderendSource: Space-Track

Epoch: Sep 9, 2026, 11:21 UTC

1 37453U 99025EHX 26252.47296162  .00001643  00000-0  12483-2 0  9995
2 37453  97.6393 138.2579 0355706 224.6606 132.5387 13.68861072933273

Volg FENGYUN 1C DEB in realtime met AllMySat

Download on the App Store